COSMOS 2251 DEB, 34990

Orbit data source: Space-Track

COSMOS 2251 DEB, 34990 is space debris in LEO originally from a launch on Wed, 16 Jun 1993 UTC launched from the Plesetsk Missile And Space Complex (PKMTR). The debris from Iridium 33, an American commercial communications satellite, has been tracked extensively since its accidental collision with the defunct Russian satellite Cosmos 2251 in 2009. This event, occurring at high speed in low Earth orbit (LEO), generated thousands of pieces of space debris, significantly increasing the risk of further collisions. The Iridium 33 debris cloud has impacted space traffic management and orbital debris mitigation strategies, making it a subject of ongoing study in space situational awareness.

Loading next visibility...
Identifier
34990, 1993-036AFN
Orbit
LEO
Country
Flag of CISCIS
Related business
Manufacturer
Unknown
Mission
Spacecraft
Bus & Motor
Unknown
Mass
Unknown
Launch date (UTC)
1993-06-16 (33 years ago)
Launch vehicle
Unknown
Launch site
Plesetsk Missile And Space Complex (PKMTR)
Object type
Payload
Rocket body
Debris
Shape & HBR
Unknown shape, 0.1 m
Radar Cross Section
Small (<0.1 m²)

Expand to show TLE details & history
Last TLE update: 6 days ago

TLE from 6 days ago
0 COSMOS 2251 DEB
1 34990U 93036AFN 26169.93538699  .00000623  00000-0  19424-3 0  9996
2 34990  74.0451 262.3075 0016620 284.4769  75.4543 14.42840465900609
Epoch: 2026-06-18T22:26Z
TLE epoch observation values (Epoch: 2026-06-18T22:26:57.435Z)
Latitude
-0.00008°
Longitude
18.39659°
Altitude
748.792 km
Speed
7.482 km/s
True Right ascension
17h 29m 13s
True Declination
0° 00' 00"
Sunlit
Object was in full shadow at epoch
Visualization orbit readout
Latitude
Unknown
Longitude
Unknown
Altitude
Unknown
Speed
Unknown
Apparent Right ascension
Unknown
Apparent Declination
Unknown
Sunlit
N/A
Visualization observer readout
Local Sidereal Time
17:47:02
Azimuth
Unknown
Elevation
Unknown
Doppler factor
Unknown
Orbital elements
Apogee altitude
758.586 km
Perigee altitude
734.903 km
Semi-major axis
7,124.882 km
Eccentricity
0.00166
Inclination
74.0451°
RAAN
262.3075°
Arg. of periapsis
284.4769°
True anomaly
75.63874°
Mean anomaly
75.4543°
Eccentric anomaly
75.54651°
Mean motion
3.60892 °/min
Orbital period
99.75 mins
BSTAR
0.00019424

Documentation

Showing up to 5 results
|